{"data":{"norad_id":66996,"epoch":"2026-09-20T21:59:52.371168Z","epoch_age_seconds":76062,"freshness":"FRESH","line1":"1 66996U 25292D   26263.91657837  .00001097  00000+0  78286-4 0  9992","line2":"2 66996  97.6239 338.6269 0014952  40.9904 319.2444 15.06518885 42851","mean_motion":15.06518885,"eccentricity":0.0014952,"inclination_deg":97.6239,"raan_deg":338.6269,"arg_perigee_deg":40.9904,"mean_anomaly_deg":319.2444,"bstar":7.8286e-5,"rev_number":4285,"period_min":95.58459667102,"perigee_km":536.49298009675,"apogee_km":557.20145289776,"semimajor_km":6924.9842164973,"source":"CELESTRAK","updated_at":"2026-09-21T09:00:16.365522Z"}}